LAPAN-TUBSAT

Last updated on Mon Sep 07 2026 00:02:45 GMT+0000 (Coordinated Universal Time)

1 29709U 07001A 26249.59656906 -.00000306 00000+0 -28342-4 0 9997 2 29709 98.1404 250.6813 0010809 283.7579 76.2432 14.86018756 63244
UTC large
Height (km)
Speed (km/s)
/
Latitude / Longitude
Inclination (degrees)
Orbital Period (minutes)
Azimuth
Elevation
Range (km)
Doppler Factor

Next 0 passes for location: London (51.5072 / 0.1276)

No passes found over London.
LAPAN-TUBSAT